The Cajun Classic - inventory

Station: 20 Miles - T Race

Distance: 20 Miles    

Release: 03-Jun-2017 16:00

Weather Release:    Arrival:

Wind at Release:     Wind at Arrival:

Temp at Release: °    Temp at Arrival: °

Lofts: 45

Birds: 181

Clocked: 121

Good Luck to Everyone!
Drops Pos Breeder Pigeon Name Color Sex Ent Arrival Speed To Win Eligible
1 B & S Loft 2 - LA 0783-AU17-LAF BCWF H 1 16:19:18.20 1823.519 00:00:00 Yes
2 Texas Trio 2 - TX 4035-AU17-TEXA BBWF C 1 16:19:18.40 1823.204 00:00:00 Yes
2 El Dorado Loft - TX 0152-AU17-TEXA BB C 1 16:19:18.40 1823.204 00:00:00 Yes
5 Gilbert Wiltz - TX 10941-AU17-AA BCWF C 1 16:19:18.60 1822.890 00:00:00 Inj
5 Tom Cosgriff - NJ 0029-AU17-ARPU BC H 2 16:19:18.60 1822.890 00:00:00 Yes
9 Gilbert Wiltz - TX 10938-AU17-AA BBWF C 2 16:19:44.50 1783.031 00:00:26 Yes
11 El Dorado Loft - TX 0153-AU17-TEXA BB C 2 16:19:45.40 1781.677 00:00:27 Yes
12 Texas Trio 2 - TX 4084-AU17-TEXA BB H 3 16:19:45.70 1781.226 00:00:28 Yes
13 Nanez Family Lofts - WI 4175-AU17-NANE BB H 2 16:19:54.40 1768.252 00:00:36 Yes
14 Nanez Family Lofts - WI 4295-AU17-NANE BB H 3 16:19:56.60 1765.001 00:00:38 Yes
16 Poorshow Loft - LA 22408-AU17-AA SILV C 1 16:20:04.00 1754.153 00:00:46 Yes
17 El Dorado Loft - TX 0151-AU17-TEXA BC H 3 16:20:04.10 1754.007 00:00:46 Yes
18 Toca Ridge Loft - LA 7384-AU17-AA GRIZ C 1 16:20:20.70 1730.155 00:01:02 Missing
20 Johnson/Mailhes - LA 0161-AU17-LAF BC H 1 16:20:26.50 1721.973 00:01:08 Yes
21 Hollywood Lou Loft - FL 0037-AU17-HLOU BBWF C 1 16:20:27.10 1721.131 00:01:09 Yes
22 A P C Loft - TX 17149-AU17-APC BBWF H 1 16:20:31.80 1714.564 00:01:14 Yes
24 Bottoms Up Loft - TX 8671-AU17-AA BC H 1 16:20:36.90 1707.495 00:01:19 Yes
27 Ganus Family Loft - IN 0362-AU17-GFL BB C 1 16:20:45.70 1695.432 00:01:28 Yes
28 Nanez Family Lofts - WI 4169-AU17-NANE BB C 4 16:20:53.70 1684.614 00:01:35 Yes
29 Cajun Express Loft - LA 0816-AU17-CEL BB H 1 16:20:54.30 1683.808 00:01:36 Yes
30 Mcconnell Loft - FL 1842-AU17-GHC BC H 2 16:20:55.00 1682.869 00:01:37 Yes
32 Nanez Family Lofts - WI 4190-AU17-NANE BB C 5 16:21:00.30 1675.791 00:01:42 Yes
33 J & K Of Tx - TX 0421-AU17-PB RC C 1 16:21:01.80 1673.799 00:01:44 Yes
35 Oaktree - LA 0715-AU17-OAK BC H 1 16:21:13.00 1659.073 00:01:55 Yes
36 Black Magic Loft - TX 0410-AU17-BLAC GRIZ C 2 16:21:18.20 1652.324 00:02:00 Yes
38 Lyons Loft - TX 1202-AU17-TXHC BB C 1 16:21:20.30 1649.613 00:02:02 Yes
39 Bayou Lofts - LA 0724-AU17-BRFT BC H 1 16:21:22.30 1647.040 00:02:04 Yes
40 John Fukumoto - HI 0377-AU17-HAWN BB C 1 16:21:23.30 1645.757 00:02:05 Yes
42 Bucktown Loft - LA 1611-AU17-AUCO BB H 1 16:21:25.50 1642.940 00:02:07 Yes
45 Red Ass Ranch - TX 0134-AU17-RAR BBWF C 1 16:21:28.10 1639.624 00:02:10 Yes
46 Espo Loft - SC 0957-AU17-ESPO BC H 1 16:21:29.30 1638.098 00:02:11 Yes
47 John Fukumoto - HI 0355-AU17-HAWN BB C 2 16:21:29.80 1637.463 00:02:12 Yes
48 Hynes - LA 1358-AU17-SLID BC C 1 16:21:30.90 1636.068 00:02:13 Missing
51 Clear Springs Loft - FL 17017-AU17-WARD BB H 1 16:21:35.90 1629.755 00:02:18 Yes
54 Tom Cosgriff - NJ 0030-AU17-ARPU BC C 3 16:21:41.50 1622.743 00:02:23 Missing
55 Carroll Hoover - PA 1070-IF17-RLPC BC C 1 16:21:43.80 1619.880 00:02:26 Yes
58 Pigeon Palace - LA 0364-AU17-LAF BB H 1 16:21:46.10 1617.028 00:02:28 Yes
58 Bionic Loft - LA 0664-AU17-CAJU BCWF H 1 16:21:46.10 1617.028 00:02:28 Yes
60 Pigeon Palace - LA 0369-AU17-LAF BB H 2 16:21:46.20 1616.904 00:02:28 Yes
61 A P C Loft - TX 17141-AU17-APC BBWF H 2 16:21:47.30 1615.543 00:02:29 Yes
62 Clear Springs Loft - FL 17034-AU17-WARD BB C 2 16:21:48.10 1614.555 00:02:30 Yes
62 Farmers Loft Of La - LA 0726-AU17-FARM BCP H 1 16:21:48.10 1614.555 00:02:30 Yes
64 Ed Minvielle - LA 17032-AU17-A BB H 1 16:21:48.60 1613.939 00:02:30 Yes
65 Black Magic Loft - TX 0403-AU17-BLAC BB C 3 16:21:49.10 1613.322 00:02:31 Yes
66 Zero's Loft - NM 0420-AU17-PB SLAT H 1 16:21:50.40 1611.722 00:02:32 Yes
67 Lyons Loft - TX 1204-AU17-TXHC BB H 2 16:21:51.10 1610.861 00:02:33 Yes
68 Hollywood Lou Loft - FL 0045-AU17-HLOU BC C 2 16:21:51.60 1610.247 00:02:33 Yes
69 H H H No 2 - TX 19862-AU17-FOYS BB H 2 16:21:52.90 1608.653 00:02:35 Yes
71 Texas Trio 2 - TX 1017-AU17-VPR BBWF H 4 16:21:54.40 1606.817 00:02:36 Yes
72 Pigeon Palace - LA 0320-AU17-LAF BBWF C 3 16:21:55.40 1605.595 00:02:37 Yes
73 A P C Loft - TX 17154-AU17-APC BB C 3 16:21:56.10 1604.741 00:02:38 Yes
74 R & R Loft - LA 0143-AU17-MILL BB H 2 16:21:56.60 1604.132 00:02:38 Yes
76 Black Gold Loft - TX 0820-AU17-BLGO BC C 1 16:21:58.50 1601.820 00:02:40 Yes
77 Bottoms Up Loft - TX 8658-AU17-AA BC C 3 16:21:58.60 1601.699 00:02:40 Yes
78 Red Ass Ranch - TX 0137-AU17-RAR BB C 2 16:21:59.40 1600.728 00:02:41 Yes
80 Carroll Hoover - PA 1071-IF17-RLPC BB H 2 16:22:00.50 1599.394 00:02:42 Yes
81 Southern Belle - GA 0012-AU17-NEA DC H 1 16:22:01.10 1598.668 00:02:43 Yes
82 H H H No 2 - TX 19853-AU17-FOYS BB C 3 16:22:01.70 1597.942 00:02:43 Yes
83 Black Gold Loft - TX 22155-AU17-AA BB C 2 16:22:02.00 1597.579 00:02:44 Yes
85 Bottoms Up Loft - TX 8667-AU17-AA BB C 4 16:22:02.10 1597.459 00:02:44 Yes
86 J B Loft - LA 0923-AU17-BRFT Chief BCWF C 1 16:22:06.60 1592.040 00:02:48 Yes
88 Texas Trio 2 - TX 4135-AU17-TEXA BB C 5 16:22:09.20 1588.926 00:02:51 Yes
89 Toca Ridge Loft - LA 7385-AU17-AA DC H 2 16:22:11.00 1586.777 00:02:53 Yes
90 Vick Corso - LA 1261-AU17-CORS DC H 2 16:22:21.70 1574.122 00:03:04 Yes
91 Pigeon Palace - LA 0350-AU17-LAF BB C 4 16:22:22.70 1572.950 00:03:04 Yes
92 Aucoin & Rivero Loft - LA 0421-AU17-MET BCWF C 1 16:22:24.40 1570.961 00:03:06 Yes
94 Mcconnell Loft - FL 1802-AU17-GHC BBPD H 3 16:22:27.80 1566.998 00:03:10 Yes
98 Vick Corso - LA 1258-AU17-CORS DC H 3 16:22:49.40 1542.281 00:03:31 Yes
100 Red Ass Ranch - TX 0132-AU17-RAR BBWF H 3 16:23:14.60 1514.413 00:03:56 Yes
101 Mcconnell Loft - FL 1844-AU17-GHC BB H 4 16:23:49.90 1477.026 00:04:32 Yes
103 Red Ass Ranch - TX 0133-AU17-RAR BBWF H 4 16:24:23.00 1443.609 00:05:05 Yes
104 Vick Corso - LA 1246-AU17-CORS BC H 4 16:24:32.30 1434.490 00:05:14 Yes
107 New Orleans Boys 2 - LA 0523-AU17-DELT BBPD C 1 16:24:41.80 1425.294 00:05:24 Yes
108 Ed Minvielle - LA 17021-AU17-A BBWF C 2 16:24:42.80 1424.332 00:05:25 Yes
109 Redtex - TX 0016-AU17-REDT SILV C 1 16:24:43.30 1423.852 00:05:25 Yes
110 Bucktown Loft - LA 1628-AU17-AUCO BB C 2 16:24:44.10 1423.085 00:05:26 Yes
111 New Orleans Boys 2 - LA 0307-AU17-MET BB C 2 16:24:44.60 1422.605 00:05:26 Yes
113 Cajun Express Loft - LA 0811-AU17-CEL BB C 2 16:24:48.50 1418.878 00:05:30 Yes
114 Nanez Family Lofts - WI 4180-AU17-NANE DC C 6 16:24:49.40 1418.021 00:05:31 Yes
115 Ed Minvielle - LA 17023-AU17-A BCSP C 3 16:24:51.10 1416.404 00:05:33 Yes
117 Carroll Hoover - PA 1067-IF17-RLPC BB H 3 16:24:59.40 1408.563 00:05:41 Yes
118 Black Gold Loft - TX 22119-AU17-AA BB C 3 16:24:59.90 1408.094 00:05:42 Yes
119 Clear Springs Loft - FL 17064-AU17-WARD DC C 3 16:25:00.30 1407.718 00:05:42 Yes
120 Pigeon Palace - LA 0332-AU17-LAF BB H 5 16:25:00.70 1407.343 00:05:43 Yes
121 Hollywood Lou Loft - FL 0033-AU17-HLOU BB H 3 16:25:03.90 1404.349 00:05:46 Yes
121 Poorshow Loft - LA 22422-AU17-AA GRIZ C 4 16:25:03.90 1404.349 00:05:46 Yes
123 Johnson/Mailhes - LA 0179-AU17-LAF BC C 4 16:25:06.70 1401.739 00:05:48 Yes
124 Bottoms Up Loft - TX 8657-AU17-AA BBP C 5 16:25:07.40 1401.088 00:05:49 Yes
125 Texas Trio 2 - TX 1018-AU17-VPR BB H 6 16:25:08.90 1399.695 00:05:51 Yes
126 Vick Corso - LA 1252-AU17-CORS BC H 5 16:25:11.00 1397.750 00:05:53 Yes
127 John Fukumoto - HI 0388-AU17-HAWN BB C 4 16:25:11.60 1397.195 00:05:53 Yes
129 Carroll Hoover - PA 1066-IF17-RLPC SIL H 4 16:25:13.60 1395.349 00:05:55 Yes
130 Aucoin & Rivero Loft - LA 1627-AU17-AUCO BC H 2 16:25:17.40 1391.854 00:05:59 Yes
131 New Orleans Boys 2 - LA 0510-AU17-DELT BB H 3 16:25:24.70 1385.191 00:06:06 Yes
132 Red Ass Ranch - TX 0135-AU17-RAR BB C 5 16:25:26.90 1383.195 00:06:09 Yes
133 New Orleans Boys 2 - LA 0314-AU17-MET BC H 4 16:25:31.70 1378.860 00:06:13 Yes
134 Espo Loft - SC 0955-AU17-ESPO BC C 2 16:25:48.40 1363.989 00:06:30 Yes
135 Hynes - LA 1357-AU17-SLID BCWF H 3 16:25:58.00 1355.584 00:06:40 Yes
136 Farmers Loft Of La - LA 0733-AU17-FARM BBP H 2 16:26:08.40 1346.595 00:06:50 Yes
137 A P C Loft - TX 17139-AU17-APC BB H 4 16:28:44.80 1224.490 00:09:27 Yes

There are 118 bird records

Note: These Race Results are unofficial and subject to change until verified by the Race Committee and declared final.